AirNav   Everest Fuels
 
 1823 users online  

2H0 Shelby County Airport
Shelbyville, Illinois, USA

GOING TO SHELBYVILLE?


FAA INFORMATION EFFECTIVE 10 SEPTEMBER 2020

Location

FAA Identifier: 2H0
Lat/Long: 39-24-40.6900N 088-50-43.8800W
39-24.678167N 088-50.731333W
39.4113028,-88.8455222
(estimated)
Elevation: 618.9 ft. / 188.6 m (surveyed)
Variation: 02W (2010)
From city: 3 miles W of SHELBYVILLE, IL
Time zone: UTC -5 (UTC -6 during Standard Time)
Zip code: 62565

Airport Operations

Airport use: Open to the public
Activation date: 11/1947
Control tower: no
ARTCC: KANSAS CITY CENTER
FSS: SAINT LOUIS FLIGHT SERVICE STATION
NOTAMs facility: STL (NOTAM-D service available)
Attendance: 0800-DUSK
Pattern altitude: 1418.9 ft. MSL
Wind indicator: lighted
Segmented circle: no
Lights: ACTVT PAPI RWY 36 - CTAF.
Beacon: white-green (lighted land airport)
Operates sunset to sunrise.

Airport Communications

CTAF/UNICOM: 122.8
  • APCH/DEP SVC PRVDD BY KANSAS CITY ARTCC ON FREQS 124.3/269.15 (DECATUR RCAG).

Nearby radio navigation aids

VOR radial/distance  VOR name  Freq  Var
AXCr176/19.6ADDERS VORTAC117.2003E
VLAr034/24.1VANDALIA VOR/DME114.3004E
BIBr327/34.0BIBLE GROVE VORTAC109.0003E

 
NDB name  Hdg/Dist  Freq  Var  ID
SHELBYVILLEat field36502WSYZ ... -.-- --..

Airport Services

Fuel available: 100LL JET-A+
SELF SVC FUEL AVBL 24 HRS WITH CREDIT CARD.
Parking: hangars and tiedowns
Airframe service: MAJOR
Powerplant service: MAJOR
Bottled oxygen: NONE
Bulk oxygen: NONE

Runway Information

Runway 18/36

Dimensions: 4098 x 75 ft. / 1249 x 23 m
Surface: asphalt/porous friction courses, in good condition
Weight bearing capacity: 
Single wheel: 4.0
Runway edge lights: medium intensity
Runway edge markings: MARKINGS RWY 18-36 FADED
RUNWAY 18  RUNWAY 36
Latitude: 39-25.095878N39-24.420897N
Longitude: 088-50.853115W088-50.847975W
Elevation: 618.4 ft.618.5 ft.
Traffic pattern: leftleft
Runway heading: 182 magnetic, 180 true002 magnetic, 360 true
Markings: nonprecision, in poor conditionnonprecision, in poor condition
Visual slope indicator: 2-light PAPI on left (4.00 degrees glide path)
Runway end identifier lights: nono
Touchdown point: yes, no lightsyes, no lights
Obstructions: none55 ft. tree, 1265 ft. from runway, 330 ft. left of centerline, 15:1 slope to clear

Runway 14/32

Dimensions: 2336 x 180 ft. / 712 x 55 m
Surface: turf, in good condition
RUNWAY 14  RUNWAY 32
Latitude: 39-24.714563N39-24.421200N
Longitude: 088-50.770798W088-50.449810W
Elevation: 617.0 ft.612.9 ft.
Traffic pattern: leftleft
Runway heading: 142 magnetic, 140 true322 magnetic, 320 true
Markings: nonenone
Runway end identifier lights: nono
Touchdown point: yes, no lightsyes, no lights
Obstructions: none46 ft. tree, 726 ft. from runway, 140 ft. left of centerline, 16:1 slope to clear
APCH RATIO 20:1 TO DSPLCD THLD; 33 FT ANT 665 FT FM DSPLCD THLD 179 FT L OF CNTRLN.

Runway 4/22

Dimensions: 1446 x 180 ft. / 441 x 55 m
Surface: turf, in good condition
RUNWAY 4  RUNWAY 22
Latitude: 39-24.537782N39-24.720210N
Longitude: 088-50.687613W088-50.490192W
Elevation: 615.2 ft.612.8 ft.
Traffic pattern: leftleft
Runway heading: 042 magnetic, 040 true222 magnetic, 220 true
Markings: nonenone
Runway end identifier lights: nono
Touchdown point: yes, no lightsyes, no lights

Airport Ownership and Management from official FAA records

Ownership: Publicly-owned
Owner: SHELBY CO ARPT & LNDG CMSN.
PO BOX 174
ASSUMPTION, IL 62510
Phone 217-774-5111
Manager: SCOTT JEFSON
1147 N 1915 EAST ROAD
SHELBYVILLE, IL 62565
Phone 217-774-5111
ALTERNATE PHONE NUMBER: 217-827-1196

Airport Operational Statistics

Aircraft based on the field: 18
Single engine airplanes: 18
    
Aircraft operations: avg 44/day *
55% local general aviation
42% transient general aviation
3% military
* for 12-month period ending 31 August 2019

Additional Remarks

BOUNDARIES FOR RYS 4/22 & 14/32 ARE MARKED WITH WHITE PAINTED TIRES SPACED AT 400 FT INTERVALS.
RY 4 RELOCATED THLD NE OF TWYS. NEW RY LENGTHS PENDING RY 4/22.
WHEN ARPT UNATNDD, PHONE NR FOR ASSISTANCE POSTED ON FBO DOORS.
FOR CD CTC KANSAS CITY ARTCC AT 913-254-8508.

Instrument Procedures

NOTE: All procedures below are presented as PDF files. If you need a reader for these files, you should download the free Adobe Reader.

NOT FOR NAVIGATION. Please procure official charts for flight.
FAA instrument procedures published for use from 10 September 2020 at 0901Z to 08 October 2020 at 0900z.

 
IAPs - Instrument Approach Procedures
RNAV (GPS) RWY 36   download (240KB)
NDB-A   download (190KB)
NOTE: Special Take-Off Minimums/Departure Procedures apply   download (201KB)

Other nearby airports with instrument procedures:

KTAZ - Taylorville Municipal Airport (24 nm W)
1H2 - Effingham County Memorial Airport (25 nm SE)
KDEC - Decatur Airport (25 nm N)
KMTO - Coles County Memorial Airport (27 nm E)
KVLA - Vandalia Municipal Airport (29 nm SW)
 
Loc | Ops | Rwys | IFR | FBO | Links
Com | Nav | Svcs | Stats | Notes
Area around 2H0 (Shelby County Airport)
 
Road maps at: MapQuest Bing Google
 
Aerial photo
WARNING: Photo may not be current or correct
Aerial photo of 2H0 (Shelby County Airport)
Do you have a better or more recent aerial photo of Shelby County Airport that you would like to share? If so, please send us your photo.

 
Sectional chart

 
Airport distance calculator
Flying to Shelby County Airport? Find the distance to fly.

From to 2H0

Sunrise and sunset
Times for 22-Sep-2020
 Local
(UTC-5)
 Zulu
(UTC)
Morning civil twilight06:1811:18
Sunrise06:4511:45
Sunset18:5123:51
Evening civil twilight19:1700:17

Current date and time
Zulu (UTC)  22-Sep-2020 15:47:34
Local (UTC-5)  22-Sep-2020 10:47:34
 
METAR
KTAZ 
24nm W 
221535Z AUTO 19003KT 10SM CLR 21/13 A3026 RMK AO2 T02110125
K1H2 
25nm SE 
221535Z AUTO 00000KT 10SM CLR 21/13 A3029 RMK AO2 T02050130
KDEC 
25nm N 
221454Z 21005KT 10SM CLR 19/14 A3027 RMK AO2 SLP249 T01940144 51002
KMTO 
27nm E 
221453Z AUTO 17003KT 10SM CLR 21/13 A3026 RMK AO2 SLP246 T02060133 50003
K3LF 
41nm W 
221535Z AUTO 15004KT 10SM BKN046 20/11 A3027 RMK AO2 T02040109
KCMI 
46nm NE 
221453Z 00000KT 10SM CLR 19/13 A3027 RMK AO2 SLP250 T01890133 51003
KSLO 
46nm S 
221535Z AUTO 00000KT 10SM CLR 22/11 A3027 RMK AO2 T02150114
KSPI 
47nm NW 
221452Z 15004KT 10SM FEW046 19/13 A3026 RMK AO2 SLP246 T01890133 53003 $
TAF
KDEC 
25nm N 
221120Z 2212/2312 19004KT P6SM SCT200 FM221700 22007KT P6SM SCT040 BKN200 FM230100 19004KT P6SM BKN200
NOTAMs
Click for the latest NOTAMs
NOTAMs are issued by the DoD/FAA and will open in a separate window not controlled by AirNav.

 

 
 

FBO, Fuel Providers, and Aircraft Ground Support

  
 Business Name 
 
 Contact 
 
 Services / Description 
 
Fuel Prices
 
Comments
  
Shelby County 217-774-5111
no information available

If you are affiliated with Shelby County and would like to show here your services, contact info, web link, logo, and more, click here
100LL Jet A
SS $3.89 $3.15 
 Updated 09-Sep-2020
 
   2 read write
SS=Self service
Update Fuel Prices
 

Would you like to see your business listed on this page?

 If your business provides an interesting product or service to pilots, flight crews, aircraft, or users of the Shelby County Airport, you should consider listing it here.  To start the listing process, click on the button below
 
Add a business
 

Other Pages about Shelby County Airport

Update a link
 
Copyright © AirNav, LLC. All rights reserved. Privacy Policy  Contact